Location: La Brionne
(46.1728°N, 1.7849°E)
Time: 07:39:49
(UTC+00:00)

ERS-1 Rocket - Pass Details

Date: 16 June 2021
Orbit: 752 x 758 km, 98.4° (Epoch: 03 August)

Event Time Altitude Azimuth Distance (km) Brightness Sun altitude
Exits shadow 21:24:39 17° 163° (SSE) 1,867 4.4 -12.7°
Maximum altitude 21:28:38 87° 76° (ENE) 767 3.0 -13.1°
Drops below altitude 10° 21:33:43 10° 347° (NNW) 2,299 6.7 -13.6°
Sets 21:36:02 0° 347° (NNW) 3,229 7.7 -13.8°
